EHI
0 0 0 0 0 0 0 0 0 0 0 0 0 0 0 0 0 0 0 0 0 0 0 0 0 0 0 0 0 0 0 0 0 0 0 0 0 0 0 0 0 0 0
0 0 0 0 0 0 0 0 0 0 0 0 0 0 0 0 0 0 0 0 0 0 0 0 0 0 0 0 0 0 0 0 0 0 0 0 0 0 0 0 0 0 0
0 0 0 0 0 0 0 0 0 0 0 0 0 0 0 0 0 0 0 0 0 0 0 0 0 0 0 0 0 0 0 0 0 0 0 0 0 0 0 0 0 0 0
0 0 0 0 0 0 0 0 0 0 0 0 0 0 0 0 0 0 0 0 0 0 0 0 0 0 0 0 0 0 0 0 0 0 0 0 0 0 0 0 0 0 0
0 0 0 0 0 0 0 0 0 0 0 0 0 0 0 0 0 0 0 0 0 0 0 0 0 0 0 0 0 0 0 0 0 0 0 0 0 0 0 0 0 0 0
0 0 0 0 0 0 0 0 0 0 0 0 0 0 0 0 0 0 0 0 0 0 0 0 0 0 0 0 0 0 0 0 0 0 0 0 0 0 0 0 0 0 0
0 0 0 0 0 0 0 0 0 0 0 0 0 0 0 0 0 0 0 0 0 0 0 0 0 0 0 0 0 0 0 0 0 0 0 0 0 0 0 0 0 0 0
0 0 0 0 0 0 0 0 0 0 0 0 0 0 0 0 0 0 0 0 0 0 0 0 0 0 0 0 0 0 0 0 0 0 0 0 0 0 0 0 0 0 0
0 0 0 0 0 0 0 0 0 0 0 0 0 0 0 0 0 0 0 0 0 0 0 0 0 0 0 0 0 0 0 0 0 0 0 0 0 0 0 0 0 0 0
0 0 0 0 0 0 0 0 0 0 0 0 0 0 0 0 0 0 0 0 0 0 0 0 0 0 0 0 0 0 0 0 0 0 0 0 0 0 0 0 0 0 0
0 0 0 0 0 0 0 0 0 0 0 0 0 0 0 0 0 0 0 0 0 0 0 0 0 0 0 0 0 0 0 0 0 0 0 0 0 0 0 0 0 0 0
0 0 0 0 0 0 0 0 0 0 0 0 0 0 0 0 0 0 0 0 0 0 0 0 0 0 0 0 0 0 0 0 0 0 0 0 0 0 0 0 0 0 0
0 0 0 0 0 0 0 0 0 0 0 0 0 0 0 0 0 0 0 0 0 0 0 0 0 0 0 0 0 0 0 0 0 0 0 0 0 0 0 0 0 0 0
0 0 0 0 0 0 0 0 0 0 0 0 0 0 0 0 0 0 0 0 0 0 0 0 0 0 0 0 0 0 0 0 0 0 0 0 0 0 0 0 0 0 0
0 0 0 0 0 0 0 0 0 0 0 0 0 0 0 0 0 0 0 0 0 0 0 0 0 0 0 0 0 0 0 0 0 0 0 0 0 0 0 0 0 0 0
0 0 0 0 0 0 0 0 0 0 0 0 0 0 0 0 0 0 0 0 0 0 0 0 0 0 0 0 0 0 0 0 0 0 0 0 0 0 0 0 0 0 0
0 0 0 0 0 0 0 0 0 0 0 0 0 0 0 0 0 0 0 0 0 0 0 0 0 0 0 0 0 0 0 0 0 0 0 0 0 0 0 0 0 0 0
0 0 0 0 0 0 0 0 0 0 0 0 0 0 0 0 0 0 0 0 0 0 0 0 0 0 0 0 0 0 0 0 0 0 0 0 0 0 0 0 0 0 0
0 0 0 0 0 0 0 0 0 0 0 0 0 0 0 0 0 0 0 0 0 0 0 0 0 0 0 0 0 0 0 0 0 0 0 0 0 0 0 0 0 0 0
0 0 0 0 0 0 0 0 0 0 0 0 0 0 0 0 0 0 0 0 0 0 0 0 0 0 0 0 0 0 0 0 0 0 0 0 0 0 0 0 0 0 0
0 0 0 0 0 0 0 0 0 0 0 0 0 0 0 0 0 0 0 0 0 0 0 0 0 0 0 0 0 0 0 0 0 0 0 0 0 0 0 0 0 0 0
0 0 0 0 0 0 0 0 0 0 0 0 0 0 0 0 0 0 0 0 0 0 0 0 0 0 0 0 0 0 0 0 0 0 0 0 0 0 0 0 0 0 0
0 0 0 0 0 0 0 0 0 0 0 0 0 0 0 0 0 0 0 0 0 0 0 0 0 0 0 0 0 0 0 0 0 0 0 0 0 0 0 0 0 0 0
0 0 0 0 0 0 0 0 0 0 0 0 0 0 0 0 0 0 0 0 0 0 0 0 0 0 0 0 0 0 0 0 0 0 0 0 0 0 0 0 0 0 0
0 0 0 0 0 0 0 0 0 0 0 0 0 0 0 0 0 0 0 0 0 0 0 0 0 0 0 0 0 0 0 0 0 0 0 0 0 0 0 0 0 0 0
0 0 0 0 0 0 0 0 0 0 0 0 0 0 0 0 0 0 0 0 0 0 0 0 0 0 0 0 0 0 0 0 0 0 0 0 0 0 0 0 0 0 0
Wind_Speed
4 4 5 5 5 5 5 4 4 4 5 5 5 5 6 6 6 6 6 6 6 5 5 5 5 4 4 3 3 4 4 4 7 4 3 3 3 3 2 2 1 1 1
3 4 4 4 5 5 5 5 5 6 5 5 6 6 7 7 6 6 7 7 6 7 6 6 6 5 6 4 4 5 5 4 7 8 4 2 2 2 2 1 1 2 2
4 4 4 5 5 5 5 5 6 6 6 7 7 7 7 7 7 7 7 7 7 7 7 7 6 6 6 5 5 5 5 6 5 7 5 2 2 1 2 1 0 0 2
4 4 4 4 4 4 5 5 6 6 7 7 7 7 7 7 7 7 7 8 8 8 8 8 7 6 5 5 5 5 6 7 6 6 5 3 2 2 2 1 1 1 1
4 4 4 4 4 5 5 6 6 6 7 7 7 8 7 7 6 7 7 8 8 8 8 8 8 10 10 7 6 5 6 6 5 5 4 3 2 2 1 0 1 1 1
4 3 3 4 4 5 5 5 6 6 6 7 8 7 8 7 9 11 8 7 7 8 7 7 8 9 11 12 12 9 7 7 6 4 3 3 2 1 1 1 2 2 1
3 3 4 4 4 4 5 6 6 5 6 7 7 7 7 9 12 12 11 7 7 7 6 6 7 8 8 7 10 12 10 9 7 5 5 3 3 2 2 2 1 1 1
4 4 4 4 5 5 5 5 5 4 5 5 6 6 7 9 11 12 12 9 8 7 7 6 7 6 6 7 8 8 7 6 5 4 4 3 3 2 2 3 2 1 1
4 4 4 4 5 5 5 4 3 4 5 4 4 6 7 7 10 10 9 6 6 7 7 7 7 6 8 10 8 7 7 5 5 6 4 3 3 3 3 3 3 3 2
4 4 4 4 4 4 4 3 3 3 4 4 5 5 6 6 8 9 7 4 5 4 5 6 8 8 8 9 6 6 5 3 3 4 4 4 3 2 2 3 3 2 1
4 4 4 4 4 4 3 3 3 3 4 4 5 5 5 6 7 9 8 4 4 4 4 4 4 8 9 8 6 4 2 1 2 3 3 3 3 2 2 0 2 3 3
4 5 4 3 3 4 4 3 3 3 4 3 4 4 4 5 7 7 10 8 5 4 3 2 2 6 7 6 4 4 5 5 3 3 3 2 2 2 2 2 1 2 3
4 4 4 4 4 3 3 3 2 2 2 2 2 2 3 4 5 9 10 9 8 4 2 3 4 6 6 5 5 5 4 3 3 3 1 1 2 2 2 2 3 2 2
5 4 4 4 4 4 3 2 2 2 2 2 2 2 2 2 3 4 4 4 6 5 4 5 6 6 5 4 4 4 3 2 2 1 0 2 2 2 2 2 2 2 3
4 3 4 4 4 4 3 3 2 1 2 3 3 3 2 1 1 1 2 2 2 2 3 3 4 4 3 3 3 3 2 2 2 1 1 1 2 2 2 2 1 1 1
3 3 2 3 3 3 3 3 4 2 2 3 4 4 2 2 1 2 3 3 3 3 3 2 2 2 1 1 1 1 2 1 1 1 1 1 1 2 2 2 1 1 1
4 3 2 3 3 2 2 2 1 3 4 3 2 3 3 2 1 1 3 4 4 3 2 1 1 1 1 1 1 1 1 1 0 0 0 1 1 1 1 2 2 2 2
3 3 3 3 3 3 3 3 2 2 0 2 2 2 3 2 2 3 3 4 3 3 1 1 1 1 1 2 2 1 1 1 1 1 1 1 1 1 2 2 2 2 3
3 2 2 2 3 3 3 3 2 3 2 2 2 3 4 3 4 4 1 0 1 2 2 2 2 2 2 2 2 2 2 2 2 1 1 2 2 1 2 3 3 4 3
2 4 3 2 2 2 2 3 3 3 3 3 3 3 2 0 1 3 1 2 2 3 3 2 2 3 2 2 2 2 2 2 2 1 2 2 2 2 2 3 3 3 3
2 2 3 2 2 2 3 3 4 4 4 4 4 5 6 3 3 4 3 3 3 4 4 3 3 3 2 2 2 2 2 2 2 2 2 2 2 2 3 3 3 3 3
3 2 2 2 2 2 2 3 3 4 4 5 4 4 7 4 4 4 4 4 4 4 4 3 3 3 3 3 3 3 3 3 3 3 3 2 2 2 3 3 3 3 3
3 3 2 2 2 3 2 2 3 3 4 4 4 4 3 4 5 5 5 5 4 4 3 3 3 3 3 3 4 4 4 4 4 4 3 3 3 3 3 3 4 5 5
3 3 3 3 3 3 3 3 3 4 4 4 4 4 4 5 5 6 5 5 4 4 4 4 4 6 6 5 4 4 5 5 4 4 5 4 4 4 4 4 5 6 6
3 3 3 3 4 4 4 4 4 4 4 4 4 4 4 4 5 5 5 5 5 5 6 5 4 5 8 8 7 6 7 8 7 5 4 4 5 5 5 6 5 6 6
4 4 4 3 4 4 4 5 5 5 4 4 4 5 5 5 5 5 5 5 5 5 6 5 7 8 9 8 9 9 9 9 9 8 5 4 5 6 6 5 7 7 8
Wind_Direction
50 49 49 42 41 45 45 41 40 37 34 34 34 35 38 36 34 42 46 49 55 52 53 62 59 58 67 63 68 76 81 98 114 102 83 99 98 101 92 83 110 115 124
60 57 50 43 46 47 43 39 44 44 40 44 45 42 43 42 39 46 51 49 55 57 53 58 57 64 64 65 74 81 85 86 115 120 108 103 109 121 116 117 153 171 169
72 67 55 48 51 51 48 45 46 48 46 47 50 46 41 39 41 46 55 56 55 56 55 58 56 67 67 67 73 79 86 92 95 114 112 99 92 106 99 89 104 48 199
78 71 59 50 52 55 54 51 48 50 53 51 49 44 39 40 40 46 57 58 57 54 52 54 54 61 69 75 80 83 94 96 98 102 103 89 80 73 89 89 50 341 276
87 77 65 58 58 59 57 56 53 53 57 54 52 43 35 39 41 52 59 64 61 57 51 51 54 61 65 72 89 91 97 98 99 99 97 82 71 77 97 129 107 18 342
97 88 80 71 65 63 61 60 59 55 53 55 51 49 44 40 48 60 66 62 62 62 57 51 54 53 60 68 78 84 100 114 116 109 104 108 109 125 130 118 114 81 336
100 94 89 81 74 66 71 66 62 58 59 56 50 50 47 37 50 64 67 67 63 58 55 53 58 52 56 67 69 69 69 85 105 122 121 131 141 172 133 99 102 132 215
102 99 97 91 84 75 72 68 62 60 62 59 50 47 50 40 51 69 72 65 61 55 53 59 65 52 56 74 74 64 57 57 75 93 121 135 147 154 141 146 156 103 353
108 107 104 103 97 86 79 73 67 68 61 56 52 48 50 34 47 73 80 69 62 50 46 49 61 62 64 78 78 70 56 38 53 75 98 109 114 125 128 90 68 68 21
119 118 111 110 104 96 89 81 73 78 71 64 54 43 47 40 45 67 83 80 68 51 39 37 48 66 68 75 82 83 70 31 27 34 38 31 35 32 76 123 135 119 114
119 113 107 105 107 100 84 76 81 76 67 59 54 38 36 35 42 58 70 81 86 68 47 27 24 50 64 69 77 82 91 79 53 53 38 23 17 10 358 50 170 157 164
113 109 106 103 101 95 86 74 76 84 77 60 55 38 21 22 37 52 65 72 84 82 52 7 6 38 49 51 55 63 73 71 61 55 47 21 2 336 322 320 266 219 208
109 109 106 93 78 80 88 83 69 73 86 83 78 59 21 14 25 46 57 62 64 68 24 8 18 29 34 32 34 45 58 67 66 62 40 321 293 295 319 336 342 342 317
115 114 108 100 85 70 67 70 79 81 98 111 112 99 44 21 16 14 25 35 35 31 13 6 18 27 32 23 19 29 41 72 106 111 282 304 325 352 355 351 354 357 358
116 113 112 109 106 88 69 55 81 81 183 155 160 155 136 91 322 18 60 35 13 357 7 19 23 20 16 11 11 12 21 38 51 27 20 4 1 2 341 340 1 15 4
121 120 125 126 119 113 106 63 33 45 48 113 149 152 158 174 161 57 42 26 11 18 55 34 11 9 2 356 9 359 3 12 7 32 41 27 356 339 333 334 351 355 306
144 153 156 154 152 151 142 130 91 3 19 43 111 152 164 180 204 359 3 358 4 46 58 7 325 291 264 227 208 213 262 281 295 35 26 335 322 324 327 323 327 323 304
157 172 173 180 182 184 185 184 178 174 237 313 310 254 235 243 280 315 353 16 7 17 12 281 265 249 233 219 212 213 239 279 306 299 295 301 311 315 312 305 304 292 291
171 178 182 183 190 198 200 199 206 208 213 237 282 290 268 277 301 302 323 99 284 298 293 275 251 229 220 219 219 219 221 232 247 256 274 282 288 289 290 288 291 295 292
196 206 193 193 201 199 201 207 213 216 223 228 236 243 249 246 300 297 274 231 235 249 254 256 256 234 215 215 217 219 231 245 256 255 264 272 276 265 271 283 284 285 282
201 221 216 208 223 218 211 211 212 212 219 229 238 236 205 200 235 254 259 244 228 233 238 236 233 233 218 205 200 204 206 224 229 230 243 258 266 272 276 275 278 279 283
194 207 216 226 230 230 226 216 204 210 220 229 245 254 231 221 233 246 251 249 239 229 219 209 214 219 212 202 193 191 202 218 226 224 233 246 257 271 279 281 285 286 284
197 215 232 244 237 237 239 233 217 218 228 233 235 233 222 224 235 239 242 240 233 233 223 205 208 225 229 219 205 194 200 216 220 213 217 240 256 266 269 272 280 286 286
204 218 226 239 239 233 233 241 240 236 237 239 237 229 224 222 227 233 233 232 232 232 224 213 213 218 222 222 221 219 219 224 220 219 217 226 244 258 264 269 274 276 280
214 221 224 229 232 233 238 245 248 250 248 244 235 227 227 223 226 233 232 230 229 230 231 225 223 224 227 227 227 230 231 233 232 228 224 226 243 253 259 264 269 275 277
220 225 230 232 233 234 232 236 242 245 245 243 235 229 230 229 230 232 230 228 229 233 236 234 232 231 233 234 236 235 236 237 239 237 227 231 244 255 259 262 269 272 276